Showing default

GLOBAL-13, 49773

Orbit data source: Space-Track

GLOBAL-13, 49773 is a payload satellite owned by BlackSky Global (US) in LEO that was launched on Thu, 02 Dec 2021 UTC via an FALCON 9 launch vehicle from the Air Force Eastern Test Range (AFETR). Payload-class satellites include a variety of spacecraft equipped with specific instruments for various scientific and technological missions. These include communications satellites like Starlink; space stations such as the ISS; scientific satellites like the Hubble; Earth observation satellites from companies like Planet Labs, Umbra, and HawkEye 360; GPS; miniature CubeSats for education and research; and military/defense satellites.

Loading next visibility...
Identifier
49773, 2021-115BB
Orbit
LEO
Country
Flag of USUS
Related business
Manufacturer
LeoStella
Mission
Operational Commercial Imaging
Bus & Motor
BSKY, Unknown motor
Mass
55 kg wet, ~50 kg dry
Launch date (UTC)
2021-12-02 (5 years ago)
Launch vehicle
FALCON 9
Launch site
Air Force Eastern Test Range (AFETR)
Object type
Payload
Rocket body
Debris
Shape & HBR
Box, 1.0 m
Radar Cross Section
0.625 m², Medium (>0.1 m² and < 1m²)

Expand to show TLE details & history
Last TLE update: 2 days ago

TLE from 2 days ago
0 GLOBAL-13
1 49773U 21115BB  26171.35190381  .00016696  00000-0  34306-3 0  9994
2 49773  53.1982  39.5421 0003571 117.2010 242.9363 15.46144876256257
Epoch: 2026-06-20T08:26Z
TLE epoch observation values (Epoch: 2026-06-20T08:26:44.489Z)
Latitude
0.00003°
Longitude
4.28899°
Altitude
430.033 km
Speed
7.654 km/s
True Right ascension
02h 38m 10s
True Declination
0° 00' 00"
Sunlit
Object was in daylight at epoch
Visualization orbit readout
Latitude
Unknown
Longitude
Unknown
Altitude
Unknown
Speed
Unknown
Apparent Right ascension
Unknown
Apparent Declination
Unknown
Sunlit
N/A
Visualization observer readout
Local Sidereal Time
21:27:12
Azimuth
Unknown
Elevation
Unknown
Doppler factor
Unknown
Orbital elements
Apogee altitude
430.699 km
Perigee altitude
425.838 km
Semi-major axis
6,806.405 km
Eccentricity
0.00036
Inclination
53.1982°
RAAN
39.5421°
Arg. of periapsis
117.201°
True anomaly
242.89987°
Mean anomaly
242.9363°
Eccentric anomaly
242.91808°
Mean motion
3.86515 °/min
Orbital period
93.14 mins
BSTAR
0.00034306
Loading maneuver chart data...
Computing Atmospheric mass density...
Loading historical data...
Loading historical data...
Loading historical data...
Loading historical data...
Loading historical data...
Loading historical data...
Loading historical data...

Documentation

Showing up to 5 results
|